www.pogodaiklimat.ru

Погода и климат >> Архив погоды >> Украина >> Ильичевск


ПОГОДА в Ильичёвске

  • Прогноз погоды в Ильичёвске
  • Монитор погоды в Ильичёвске
  • Климат города

АРХИВ ПОГОДЫ в Ильичёвске

Время (UTC), дата Ветер
(напр.,м/с)
 
Видим.   Явления Облачность Т
(С)
Тd
(С)
f
(%)
Тe
(С)
Тes
(С)
Комфортность P
(гПа)
Po
(гПа)
Тmin
(С)
Tmax
(С)
R
(мм)
R24
(мм)
S
(см)
18 6.12 СЗ 5 10 км слабый ливневой дождь со снегом 10/10 630 м
[Frnb Ns]
+4.4 +2.9 90 -1 -1 1017.8 1018.0 +4.9 0.4
21 6.12 З 8 в посл. час ливневой дождь н/о 87 1013.3
00 7.12 З 8 н/о 5 баллов +5.4 +2.6 82 -0 1018.5 1012.0 0.0
03 7.12 З 8 н/о 7 баллов +5.8 +1.7 75 0 0 1019.8 1013.3
06 7.12 СЗ 4 н/о 7 баллов +5.0 +1.7 79 +1 +1 1021.2 1014.7 0.0
09 7.12 СЗ 5 н/о 7 баллов +7.0 +2.1 71 +3 +4 1021.2 1014.7
12 7.12 СЗ 5 35 км 8/4 600 м
[Cu hum Cc]
+7.6 +2.3 69 +4 +4 1019.1 1019.0
15 7.12 З 3 н/о 7 баллов +7.5 +2.8 72 +5 +5 1021.1 1014.7
18 7.12 З 3 н/о 4 балла +6.9 +2.4 73 +4 +4 1021.2 1014.7
21 7.12 З 2 н/о 6 баллов +5.8 +3.0 82 +3 +3 1021.2 1014.7
00 8.12 СЗ 2 50 км ясно +3.4 +1.1 85 0 0 1019.2 1019.0
03 8.12 З 1 н/о ясно +3.0 +0.9 86 +1 +1 1021.2 1014.7
06 8.12 З 1 н/о ясно +2.4 +1.4 93 +1 +1 1021.3 1014.7
09 8.12 ЮВ 1 н/о ясно +7.6 +3.5 75 +7 +10 1019.7 1013.3
12 8.12 Ю 2 16 км ясно +8.0 +4.8 80 +6 +8 1016.4 1016.0
15 8.12 Ю 2 н/о ясно +6.7 +4.0 83 +4 +4 1017.1 1010.7
18 8.12 ЮЗ 1 н/о ясно +6.4 +4.9 90 +5 +5 1017.1 1010.7
21 8.12 З 1 н/о ясно +4.0 +1.4 83 +3 +3 1015.8 1009.3
00 9.12 Ю 1 11 км ясно +3.2 +0.8 84 +2 +2 1014.0 1014.0
03 9.12 ЮЗ 2 н/о ясно +4.0 +2.0 87 +1 +1 1014.5 1008.0
06 9.12 З 1 н/о 3 балла +4.1 +1.8 85 +3 +3 1014.5 1008.0
09 9.12 Ю 2 н/о 3 балла +9.0 +5.6 79 +7 +9 1013.1 1006.7
12 9.12 Ю 4 25 км 4/0
[Ci fib]
+9.4 +7.7 89 +6 +7 1009.4 1009.0
15 9.12 Ю 3 н/о 7 баллов +9.2 +8.0 92 +7 +7 1010.3 1004.0
18 9.12 Ю 3 н/о дымка 8 баллов +9.2 +8.4 95 +7 1009.0 1002.7
21 9.12 Ю 5 н/о ясно +9.0 +8.1 94 +5 +5 1007.6 1001.3
00 10.12 Ю 6 15 км ясно +9.4 +8.1 92 +6 +6 1005.1 1005.0
03 10.12 Ю 7 н/о 8 баллов +9.8 +8.6 92 +6 +6 1005.0 998.7
06 10.12 ЮЗ 3 н/о 9 баллов +10.0 +8.8 92 +8 +8 1003.6 997.3
09 10.12 З 4 н/о в посл. час ливневой дождь н/о +9.6 +7.5 87 +7 1002.3 996.0
12 10.12 З 9 н/о слабый ливневой дождь со снегом н/о +2.4 +1.4 93 -5 1003.7 997.3 5.0
15 10.12 СЗ 12 н/о 8 баллов +1.3 -0.6 87 -7 1007.8 1001.3
18 10.12 З 8 н/о 8 баллов +1.6 -1.0 83 -5 1013.2 1006.7 5.0
21 10.12 ЮЗ 5 н/о 4 балла +1.2 -2.0 79 -4 -4 1015.9 1009.3
00 11.12 З 3 10 км 4/0
[Ci fib]
+0.9 -1.1 86 -4 -4 1014.9 1015.0
03 11.12 Ю 3 н/о 8 баллов +3.4 -1.0 73 -0 -0 1017.2 1010.7
06 11.12 Ю 2 н/о 7 баллов +3.5 -0.9 73 +1 +1 1015.8 1009.3
09 11.12 ЮЗ 4 н/о 7 баллов +8.1 +0.8 60 +5 +6 1017.1 1010.7
12 11.12 Ю 3 23 км 8/0
[Ac trans]
+9.0 0.0 53 +7 +8 1014.8 1015.0
15 11.12 Ю 5 н/о 6 баллов +8.8 +1.5 60 +6 +6 1017.1 1010.7
18 11.12 Ю 4 н/о ясно +8.5 +2.3 65 +6 +6 1017.1 1010.7
21 11.12 ЮЗ 2 н/о ясно +8.4 +3.0 69 +7 +7 1015.7 1009.3
00 12.12 Ю 2 20 км 4/0
[Ci fib]
+8.3 +4.5 77 +7 +7 1013.9 1014.0
03 12.12 ЮЗ 3 н/о ясно +8.2 +5.3 82 +6 +6 1015.7 1009.3
06 12.12 Ю 1 н/о 6 баллов +7.6 +4.7 82 +7 +7 1015.7 1009.3
09 12.12 Ю 3 н/о 7 баллов +10.3 +6.3 76 +8 +9 1015.6 1009.3
12 12.12 Ю 3 50 км 8/0
[Ci fib]
+11.0 +7.4 78 +9 +10 1013.4 1013.0
15 12.12 Ю 2 н/о 7 баллов +9.3 +6.6 83 +8 +8 1015.7 1009.3
18 12.12 ЮЗ 1 н/о ясно +7.9 +4.5 79 +7 +7 1017.1 1010.7
21 12.12 З 1 н/о ясно +7.8 +3.6 75 +7 +7 1017.1 1010.7
00 13.12 З 1 15 км ясно +5.0 +2.8 86 +4 +4 1015.0 1015.0
03 13.12 СЗ 1 н/о ясно +3.2 +1.7 90 +2 +2 1015.8 1009.3
06 13.12 З 1 н/о 8 баллов +2.4 +1.4 93 +1 +1 1017.2 1010.7
09 13.12 штиль 0 н/о 8 баллов +8.4 +5.9 84 +8 +8 1015.7 1009.3
12 13.12 Ю 3 13 км 9/0
[Ac As Cs]
+8.6 +6.4 86 +6 +7 1013.2 1013.0

 

Местоположение метеостанции Ильичевск (Одесская область, Украина): широта 46.40 долгота 30.70 высота над уровнем моря 52 м.

В архиве по умолчанию представлена погода в Ильичёвске за последнюю неделю. Архивные данные за месяц целиком и за предыдущие месяцы, начиная с января 2011 года, Вы можете получить, выбрав интересующий диапазон дат из раскрывающегося списка и нажав кнопку "Ввод!".

Внимание! Время в таблицах - всемирное. Для получения местного времени необходимо прибавить поправку, которая в Ильичёвске равна 2 ч.

Смотрите также архив погоды в соседних городах и на ближайших метеорологических станциях:

Погода в Одессе (Одесская область, Украина) (6 км)
Погода в Белгород-Днестровском (Одесская область, Украина) (35 км)
Погода в Раздельной (Одесская область, Украина) (69 км)
Погода в Сербке (Одесская область, Украина) (69 км)
Погода в Заставе (Одесская область, Украина) (70 км)
Погода в Очакове (Николаевская область, Украина) (70 км)
Погода в Сарате (Одесская область, Украина) (90 км)
Погода в Штефан Водэ (Молдова) (94 км)
Погода в Тирасполе (Молдова) (101 км)
Погода в Вилково (Одесская область, Украина) (108 км)

Пояснения к столбцам:

Ветер - указаны скорость ветра в м/с - средняя за 10 мин, порывы в срок и между сроками (в фигурных скобках) и направление, откуда дует ветер: С - северный, СВ - северо-восточный, В - восточный, ЮВ - юго-восточный, Ю - южный, ЮЗ - юго-западный, З - западный, СЗ - северо-западный.
Видимость - горизонтальная дальность видимости в метрах или километрах. При видимости от 1 до 10 км при отсутствии осадков обычно наблюдается дымка, при ухудшении видимости до 1 км и менее - туман. В сухую погоду видимость может ухудшаться дымом, пылью или мглою.
Явления - указаны атмосферные явления, наблюдавшиеся в срок или в последний час перед сроком; фигурными скобками обозначены явления, наблюдавшиеся между сроками (за 1-3 часа до срока); квадратными скобками обозначены град или гололедные отложения с указанием их диаметра в мм.
Облачность - указаны через наклонную черту общая и нижняя облачность в баллах и высота нижней границы облаков в метрах; квадратными скобками обозначены формы облаков: Ci - перистые, Cs - перисто-слоистые, Cc - перисто-кучевые, Ac - высококучевые, As - высокослоистые, Sc - слоисто-кучевые, Ns - слоисто-дождевые, Cu - кучевые, Cb - кучево-дождевые. Подробнее классификацию облаков см. в Атласе облаков (PDF).
T - Температура воздуха - температура, измеренная на высоте 2 м над землей.
Td - Температура точки росы - температура, при понижении до которой содержащийся в воздухе водяной пар достигнет насыщения.
f - Относительная влажность воздуха - влажноcть воздуха, измеренная на высоте 2 м над землей.
Te - Эффективная температура - температура, которую ощущает одетый по сезону человек в тени. Характеристика душности погоды. При расчете учитывается влияние влажности воздуха и скорости ветра на теплоощущения человека.
Tes - Эффективная температура на солнце - температура, которую ощущает человек, с поправкой на солнечный нагрев. Характеристика знойности погоды. Зависит от высоты солнца над горизонтом, облачности и скорости ветра. Ночью, в пасмурную погоду, а также при ветре 12 м/с и более поправка равна нулю.
P - Атмосферное давление - приведенное к уровню моря атмосферное давление.
Po - Атмосферное давление - измеренное на уровне метеостанции атмосферное давление.
Tmin - Минимальная температура - минимум температуры воздуха на высоте 2 м над землей.
Tmax - Максимальная температура - максимум температуры воздуха на высоте 2 м над землей.
R - Количество осадков - Количество выпавших осадков за период времени, мм. При наведении курсора мыши на число - период времени, за который выпало указанное количество осадков.
R24 - Количество осадков - Количество выпавших осадков за 24 часа, мм.
S - Снежный покров - Высота снежного покрова, см. При наведении курсора мыши на число - состояние снежного покрова и степень покрытия местности в баллах.